Accueil
METAR-TAF:

METAR-TAF

Aéroports :

Plymouth Municipal Airport

Plymouth, Massachusetts, États-Unis

latitude: 41-54-31N, longitude: 070-43-41W, altitude: 45 m

Observation

Le bulletin a été fait il y a 51 minutes, à 09:52 UTC
Vent 12 kt de sud-ouest avec des rafales jusqu'à 18 kt
Température 22°C
Humidité 88%
Pression 1012 hPa
Visibilité: 16.1 km
Ciel couvert à une hauteur de 1000 ft

METAR: KPYM 220952Z AUTO 23012G18KT 10SM OVC010 22/20 A2989 RMK AO2 SLP120 T02220200

Heure: 06:43 (10:43 UTC)


TAF: absent

Observations et prévisions météorologiques de plus de 4000 aéroports (messages METAR et TAF).

Les stations disponibles sont représentées par des disques jaunes et rouges sur la carte.

Passer la souris dessus pour voir le nom de la station.

Cliquer dessus pour voir les observations et prévisions météorologiques.

Pour changer de carte: cliquez sur les boutons verts avec une croix noire pour zoomer, sur le bouton vert avec un tiret pour effectuer un zoom arrière, ou sur les flèches vertes pour les cartes adjacentes.


METAR-TAF: